| time (UTC) | temp F | wind direction | speed MPH | gust MPH | rain 1hr in | rain 24hr in | rain mn in | humidity % | barometer mb |
| 20260506232512 | 86 | 126 | 9.0 | 13.0 | 0.00 | 0.00 | 0.00 | 71 | 1005.9 |
| 20260506232014 | 87 | 125 | 8.0 | 12.0 | 0.00 | 0.00 | 0.00 | 72 | 1005.8 |
| 20260506231513 | 87 | 126 | 9.0 | 14.0 | 0.00 | 0.00 | 0.00 | 70 | 1005.8 |
| 20260506230513 | 87 | 132 | 9.0 | 13.0 | 0.00 | 0.00 | 0.00 | 72 | 1005.8 |
| 20260506225512 | 87 | 136 | 8.0 | 12.0 | 0.00 | 0.00 | 0.00 | 71 | 1005.8 |
| 20260506225013 | 87 | 146 | 8.0 | 10.0 | 0.00 | 0.00 | 0.00 | 71 | 1005.8 |
| 20260506224512 | 87 | 137 | 7.0 | 12.0 | 0.00 | 0.00 | 0.00 | 71 | 1005.8 |
| 20260506224013 | 87 | 117 | 7.0 | 12.0 | 0.00 | 0.00 | 0.00 | 71 | 1005.9 |
| 20260506223513 | 87 | 137 | 9.0 | 13.0 | 0.00 | 0.00 | 0.00 | 71 | 1005.8 |
| 20260506223013 | 88 | 141 | 9.0 | 14.0 | 0.00 | 0.00 | 0.00 | 70 | 1005.7 |
| 20260506222013 | 88 | 147 | 9.0 | 12.0 | 0.00 | 0.00 | 0.00 | 67 | 1005.6 |
| 20260506221512 | 88 | 133 | 7.0 | 12.0 | 0.00 | 0.00 | 0.00 | 67 | 1005.6 |
| 20260506220513 | 88 | 137 | 9.0 | 12.0 | 0.00 | 0.00 | 0.00 | 69 | 1005.6 |
| 20260506220012 | 87 | 150 | 9.0 | 12.0 | 0.00 | 0.00 | 0.00 | 69 | 1005.6 |
| 20260506215513 | 88 | 153 | 7.0 | 12.0 | 0.00 | 0.00 | 0.00 | 68 | 1005.6 |
| 20260506215014 | 88 | 132 | 7.0 | 10.0 | 0.00 | 0.00 | 0.00 | 69 | 1005.7 |
| 20260506214513 | 88 | 131 | 7.0 | 12.0 | 0.00 | 0.00 | 0.00 | 67 | 1005.7 |
| 20260506214012 | 88 | 139 | 9.0 | 13.0 | 0.00 | 0.00 | 0.00 | 68 | 1005.7 |
| 20260506213512 | 88 | 142 | 5.0 | 9.0 | 0.00 | 0.00 | 0.00 | 69 | 1005.8 |
| 20260506213013 | 88 | 142 | 7.0 | 10.0 | 0.00 | 0.00 | 0.00 | 68 | 1005.8 |
| 20260506212513 | 88 | 114 | 3.0 | 8.0 | 0.00 | 0.00 | 0.00 | 68 | 1005.9 |
| 20260506212012 | 87 | 141 | 4.0 | 9.0 | 0.00 | 0.00 | 0.00 | 67 | 1005.9 |
| 20260506211512 | 87 | 126 | 3.0 | 8.0 | 0.00 | 0.00 | 0.00 | 69 | 1005.9 |
| 20260506211013 | 87 | 106 | 5.0 | 7.0 | 0.00 | 0.00 | 0.00 | 69 | 1006.0 |
| 20260506210513 | 86 | 138 | 4.0 | 7.0 | 0.00 | 0.00 | 0.00 | 71 | 1006.1 |
| 20260506210013 | 86 | 162 | 5.0 | 7.0 | 0.00 | 0.00 | 0.00 | 71 | 1006.1 |
| 20260506205512 | 86 | 151 | 5.0 | 7.0 | 0.00 | 0.00 | 0.00 | 72 | 1006.2 |
| 20260506205013 | 86 | 150 | 6.0 | 8.0 | 0.00 | 0.00 | 0.00 | 72 | 1006.1 |
| 20260506204513 | 86 | 137 | 4.0 | 7.0 | 0.00 | 0.00 | 0.00 | 71 | 1006.2 |
| 20260506204013 | 86 | 144 | 5.0 | 7.0 | 0.00 | 0.00 | 0.00 | 72 | 1006.3 |
| 20260506203512 | 86 | 150 | 3.0 | 7.0 | 0.00 | 0.00 | 0.00 | 73 | 1006.4 |
| 20260506203012 | 86 | 132 | 3.0 | 6.0 | 0.00 | 0.00 | 0.00 | 73 | 1006.4 |
| 20260506202512 | 86 | 151 | 3.0 | 8.0 | 0.00 | 0.00 | 0.00 | 73 | 1006.5 |
| 20260506202012 | 85 | 161 | 4.0 | 8.0 | 0.00 | 0.00 | 0.00 | 73 | 1006.5 |
| 20260506201512 | 85 | 114 | 6.0 | 9.0 | 0.00 | 0.00 | 0.00 | 73 | 1006.6 |
| 20260506201013 | 85 | 141 | 5.0 | 8.0 | 0.00 | 0.00 | 0.00 | 73 | 1006.6 |
| 20260506200513 | 85 | 179 | 5.0 | 8.0 | 0.00 | 0.00 | 0.00 | 72 | 1006.7 |
| 20260506200012 | 85 | 159 | 5.0 | 7.0 | 0.00 | 0.00 | 0.00 | 72 | 1006.9 |
| 20260506195513 | 86 | 164 | 5.0 | 7.0 | 0.00 | 0.00 | 0.00 | 72 | 1006.9 |
| 20260506195013 | 86 | 126 | 7.0 | 9.0 | 0.00 | 0.00 | 0.00 | 71 | 1007.0 |
| 20260506194512 | 86 | 192 | 3.0 | 9.0 | 0.00 | 0.00 | 0.00 | 72 | 1007.0 |
| 20260506194012 | 86 | 154 | 5.0 | 9.0 | 0.00 | 0.00 | 0.00 | 72 | 1007.1 |
| 20260506193513 | 86 | 193 | 3.0 | 6.0 | 0.00 | 0.00 | 0.00 | 72 | 1007.3 |
| 20260506193012 | 86 | 172 | 5.0 | 8.0 | 0.00 | 0.00 | 0.00 | 72 | 1007.3 |
| 20260506192513 | 86 | 185 | 3.0 | 5.0 | 0.00 | 0.00 | 0.00 | 72 | 1007.5 |
| 20260506192013 | 86 | 207 | 3.0 | 8.0 | 0.00 | 0.00 | 0.00 | 72 | 1007.5 |
| 20260506191515 | 86 | 155 | 4.0 | 7.0 | 0.00 | 0.00 | 0.00 | 73 | 1007.5 |
| 20260506190513 | 86 | 75 | 1.0 | 5.0 | 0.00 | 0.00 | 0.00 | 73 | 1007.6 |
| 20260506190013 | 85 | 353 | 2.0 | 5.0 | 0.00 | 0.00 | 0.00 | 74 | 1007.6 |
| 20260506185513 | 85 | 348 | 1.0 | 3.0 | 0.00 | 0.00 | 0.00 | 76 | 1007.7 |
| 20260506185013 | 84 | 130 | 2.0 | 5.0 | 0.00 | 0.00 | 0.00 | 76 | 1007.8 |
| 20260506184512 | 84 | 97 | 1.0 | 3.0 | 0.00 | 0.00 | 0.00 | 76 | 1007.8 |
| 20260506184013 | 84 | 129 | 2.0 | 5.0 | 0.00 | 0.00 | 0.00 | 76 | 1007.9 |
| 20260506182514 | 83 | 75 | 0.0 | 2.0 | 0.00 | 0.00 | 0.00 | 80 | 1008.0 |
| 20260506182012 | 83 | 235 | 1.0 | 2.0 | 0.00 | 0.00 | 0.00 | 79 | 1008.1 |
| 20260506181013 | 83 | 11 | 1.0 | 3.0 | 0.00 | 0.00 | 0.00 | 80 | 1008.3 |
| 20260506180512 | 83 | 33 | 2.0 | 3.0 | 0.00 | 0.00 | 0.00 | 81 | 1008.3 |
| 20260506180012 | 82 | 54 | 0.0 | 2.0 | 0.00 | 0.00 | 0.00 | 81 | 1008.4 |
| 20260506175512 | 82 | 64 | 0.0 | 3.0 | 0.00 | 0.00 | 0.00 | 81 | 1008.4 |
| 20260506175012 | 82 | 50 | 2.0 | 3.0 | 0.00 | 0.00 | 0.00 | 81 | 1008.3 |
| 20260506174512 | 82 | 77 | 0.0 | 3.0 | 0.00 | 0.00 | 0.00 | 81 | 1008.3 |
| 20260506174013 | 82 | 147 | 2.0 | 2.0 | 0.00 | 0.00 | 0.00 | 81 | 1008.3 |
| 20260506173512 | 82 | 247 | 0.0 | 0.0 | 0.00 | 0.00 | 0.00 | 81 | 1008.4 |
| 20260506173013 | 82 | 247 | 0.0 | 2.0 | 0.00 | 0.00 | 0.00 | 82 | 1008.4 |
| 20260506172513 | 82 | 240 | 1.0 | 2.0 | 0.00 | 0.00 | 0.00 | 81 | 1008.3 |
| 20260506172013 | 82 | 221 | 2.0 | 3.0 | 0.00 | 0.00 | 0.00 | 80 | 1008.3 |
| 20260506171515 | 82 | 206 | 1.0 | 3.0 | 0.00 | 0.00 | 0.00 | 80 | 1008.3 |
| 20260506171012 | 82 | 210 | 1.0 | 6.0 | 0.00 | 0.00 | 0.00 | 80 | 1008.2 |
| 20260506170513 | 82 | 225 | 3.0 | 6.0 | 0.00 | 0.00 | 0.00 | 80 | 1008.1 |
| 20260506170012 | 82 | 204 | 4.0 | 7.0 | 0.00 | 0.00 | 0.00 | 80 | 1008.0 |
| 20260506165513 | 82 | 189 | 5.0 | 7.0 | 0.00 | 0.00 | 0.00 | 80 | 1008.1 |
| 20260506165013 | 82 | 218 | 5.0 | 8.0 | 0.00 | 0.00 | 0.00 | 79 | 1008.0 |
| 20260506164513 | 82 | 204 | 5.0 | 10.0 | 0.00 | 0.00 | 0.00 | 79 | 1008.0 |
| 20260506163512 | 82 | 203 | 5.0 | 10.0 | 0.00 | 0.00 | 0.00 | 80 | 1007.8 |
| 20260506163013 | 82 | 208 | 6.0 | 10.0 | 0.00 | 0.00 | 0.00 | 81 | 1007.8 |
| 20260506162512 | 81 | 181 | 6.0 | 9.0 | 0.00 | 0.00 | 0.00 | 82 | 1007.7 |
| 20260506162013 | 81 | 196 | 7.0 | 10.0 | 0.00 | 0.00 | 0.00 | 82 | 1007.7 |
| 20260506161512 | 81 | 185 | 6.0 | 10.0 | 0.00 | 0.00 | 0.00 | 82 | 1007.7 |
| 20260506161012 | 81 | 194 | 7.0 | 10.0 | 0.00 | 0.00 | 0.00 | 80 | 1007.7 |
| 20260506160512 | 82 | 182 | 5.0 | 9.0 | 0.00 | 0.00 | 0.00 | 81 | 1007.6 |
| 20260506160012 | 82 | 195 | 5.0 | 8.0 | 0.00 | 0.00 | 0.00 | 79 | 1007.5 |
| 20260506155512 | 82 | 175 | 6.0 | 12.0 | 0.00 | 0.00 | 0.00 | 81 | 1007.4 |
| 20260506155012 | 82 | 164 | 5.0 | 9.0 | 0.00 | 0.00 | 0.00 | 79 | 1007.4 |
| 20260506154513 | 82 | 178 | 6.0 | 9.0 | 0.00 | 0.00 | 0.00 | 80 | 1007.4 |
| 20260506153512 | 82 | 179 | 7.0 | 13.0 | 0.00 | 0.00 | 0.00 | 78 | 1007.3 |
| 20260506153013 | 82 | 194 | 7.0 | 14.0 | 0.00 | 0.00 | 0.00 | 79 | 1007.3 |
| 20260506152512 | 82 | 200 | 10.0 | 16.0 | 0.00 | 0.00 | 0.00 | 79 | 1007.3 |
| 20260506151512 | 82 | 155 | 9.0 | 14.0 | 0.00 | 0.00 | 0.00 | 80 | 1007.2 |
| 20260506151012 | 82 | 168 | 7.0 | 12.0 | 0.00 | 0.00 | 0.00 | 80 | 1007.2 |
| 20260506150512 | 82 | 191 | 6.0 | 10.0 | 0.00 | 0.00 | 0.00 | 80 | 1007.2 |
| 20260506150012 | 81 | 168 | 6.0 | 13.0 | 0.00 | 0.00 | 0.00 | 83 | 1007.3 |
| 20260506145513 | 81 | 193 | 5.0 | 12.0 | 0.00 | 0.00 | 0.00 | 83 | 1007.2 |
| 20260506145013 | 81 | 165 | 5.0 | 12.0 | 0.00 | 0.00 | 0.00 | 83 | 1007.2 |
| 20260506144515 | 81 | 177 | 9.0 | 14.0 | 0.00 | 0.00 | 0.00 | 82 | 1007.2 |
| 20260506143013 | 81 | 164 | 6.0 | 9.0 | 0.00 | 0.00 | 0.00 | 85 | 1007.2 |
| 20260506142512 | 80 | 159 | 8.0 | 13.0 | 0.00 | 0.00 | 0.00 | 85 | 1007.2 |
| 20260506141511 | 80 | 165 | 7.0 | 12.0 | 0.00 | 0.00 | 0.00 | 85 | 1007.2 |
| 20260506141012 | 80 | 152 | 9.0 | 12.0 | 0.00 | 0.00 | 0.00 | 86 | 1007.2 |
| 20260506140512 | 79 | 172 | 7.0 | 13.0 | 0.00 | 0.00 | 0.00 | 87 | 1007.1 |
| 20260506140012 | 79 | 150 | 9.0 | 12.0 | 0.00 | 0.00 | 0.00 | 87 | 1007.2 |
| 20260506135512 | 79 | 156 | 8.0 | 12.0 | 0.00 | 0.00 | 0.00 | 87 | 1007.3 |
| 20260506135012 | 79 | 155 | 8.0 | 10.0 | 0.00 | 0.00 | 0.00 | 88 | 1007.2 |
| 20260506134512 | 79 | 149 | 8.0 | 12.0 | 0.00 | 0.00 | 0.00 | 88 | 1007.2 |
| 20260506134012 | 79 | 152 | 9.0 | 12.0 | 0.00 | 0.00 | 0.00 | 89 | 1007.1 |
| 20260506133513 | 78 | 148 | 9.0 | 10.0 | 0.00 | 0.00 | 0.00 | 88 | 1007.2 |
| 20260506133013 | 78 | 135 | 7.0 | 10.0 | 0.00 | 0.00 | 0.00 | 89 | 1007.2 |
| 20260506132512 | 78 | 139 | 7.0 | 10.0 | 0.00 | 0.00 | 0.00 | 89 | 1007.2 |
| 20260506132012 | 78 | 148 | 7.0 | 10.0 | 0.00 | 0.00 | 0.00 | 88 | 1007.2 |
| 20260506131512 | 78 | 139 | 7.0 | 12.0 | 0.00 | 0.00 | 0.00 | 89 | 1007.2 |
| 20260506131012 | 78 | 148 | 8.0 | 10.0 | 0.00 | 0.00 | 0.00 | 89 | 1007.2 |
| 20260506130512 | 78 | 139 | 7.0 | 10.0 | 0.00 | 0.00 | 0.00 | 89 | 1007.2 |
| 20260506130012 | 78 | 141 | 6.0 | 9.0 | 0.00 | 0.00 | 0.00 | 90 | 1007.1 |
| 20260506125513 | 78 | 139 | 7.0 | 9.0 | 0.00 | 0.00 | 0.00 | 89 | 1006.9 |
| 20260506125012 | 78 | 139 | 7.0 | 9.0 | 0.00 | 0.00 | 0.00 | 90 | 1006.9 |
| 20260506124512 | 78 | 147 | 6.0 | 9.0 | 0.00 | 0.00 | 0.00 | 90 | 1006.9 |
| 20260506124012 | 78 | 143 | 7.0 | 9.0 | 0.00 | 0.00 | 0.00 | 90 | 1006.9 |
| 20260506123512 | 77 | 147 | 7.0 | 9.0 | 0.00 | 0.00 | 0.00 | 90 | 1006.8 |
| 20260506123012 | 77 | 144 | 7.0 | 9.0 | 0.00 | 0.00 | 0.00 | 90 | 1006.8 |
| 20260506122012 | 77 | 142 | 7.0 | 10.0 | 0.00 | 0.00 | 0.00 | 90 | 1006.8 |
| 20260506121512 | 77 | 143 | 7.0 | 10.0 | 0.00 | 0.00 | 0.00 | 90 | 1006.8 |
| 20260506121012 | 77 | 143 | 8.0 | 10.0 | 0.00 | 0.00 | 0.00 | 90 | 1006.8 |
| 20260506120512 | 77 | 143 | 7.0 | 9.0 | 0.00 | 0.00 | 0.00 | 90 | 1006.7 |
| 20260506120014 | 77 | 146 | 7.0 | 10.0 | 0.00 | 0.00 | 0.00 | 90 | 1006.7 |
| 20260506115011 | 77 | 143 | 7.0 | 9.0 | 0.00 | 0.00 | 0.00 | 90 | 1006.6 |
| 20260506114512 | 77 | 144 | 7.0 | 10.0 | 0.00 | 0.00 | 0.00 | 90 | 1006.6 |
| 20260506114012 | 77 | 141 | 6.0 | 8.0 | 0.00 | 0.00 | 0.00 | 90 | 1006.6 |
| 20260506113512 | 77 | 138 | 6.0 | 8.0 | 0.00 | 0.00 | 0.00 | 90 | 1006.6 |
| 20260506113013 | 77 | 150 | 5.0 | 8.0 | 0.00 | 0.00 | 0.00 | 90 | 1006.7 |
| 20260506112512 | 77 | 150 | 5.0 | 8.0 | 0.00 | 0.00 | 0.00 | 90 | 1006.7 |
| 20260506112012 | 77 | 147 | 6.0 | 9.0 | 0.00 | 0.00 | 0.00 | 90 | 1006.6 |
| 20260506111512 | 77 | 146 | 6.0 | 10.0 | 0.00 | 0.00 | 0.00 | 90 | 1006.5 |
| 20260506111013 | 77 | 148 | 7.0 | 9.0 | 0.00 | 0.00 | 0.00 | 90 | 1006.5 |
| 20260506110513 | 77 | 139 | 7.0 | 10.0 | 0.00 | 0.00 | 0.00 | 90 | 1006.5 |
| 20260506110013 | 77 | 142 | 6.0 | 8.0 | 0.00 | 0.00 | 0.00 | 90 | 1006.6 |
| 20260506105513 | 77 | 139 | 6.0 | 7.0 | 0.00 | 0.00 | 0.00 | 90 | 1006.7 |
| 20260506105012 | 77 | 140 | 6.0 | 8.0 | 0.00 | 0.00 | 0.00 | 90 | 1006.6 |
| 20260506104512 | 77 | 137 | 6.0 | 8.0 | 0.00 | 0.00 | 0.00 | 90 | 1006.6 |
| 20260506103513 | 77 | 132 | 5.0 | 8.0 | 0.00 | 0.00 | 0.00 | 90 | 1006.6 |
| 20260506103013 | 77 | 140 | 6.0 | 8.0 | 0.00 | 0.00 | 0.00 | 90 | 1006.7 |
| 20260506102511 | 77 | 137 | 7.0 | 9.0 | 0.00 | 0.00 | 0.00 | 90 | 1006.7 |
| 20260506102012 | 77 | 133 | 7.0 | 9.0 | 0.00 | 0.00 | 0.00 | 90 | 1006.7 |
| 20260506101013 | 77 | 146 | 5.0 | 7.0 | 0.00 | 0.00 | 0.00 | 90 | 1006.6 |
| 20260506100512 | 77 | 150 | 5.0 | 7.0 | 0.00 | 0.00 | 0.00 | 90 | 1006.5 |
| 20260506100012 | 77 | 143 | 5.0 | 6.0 | 0.00 | 0.00 | 0.00 | 90 | 1006.5 |
| 20260506095013 | 77 | 149 | 3.0 | 5.0 | 0.00 | 0.00 | 0.00 | 90 | 1006.5 |
| 20260506094512 | 77 | 137 | 3.0 | 5.0 | 0.00 | 0.00 | 0.00 | 89 | 1006.7 |
| 20260506094017 | 77 | 132 | 3.0 | 6.0 | 0.00 | 0.00 | 0.00 | 89 | 1006.6 |
| 20260506093513 | 78 | 137 | 3.0 | 5.0 | 0.00 | 0.00 | 0.00 | 88 | 1006.6 |
| 20260506093015 | 78 | 158 | 5.0 | 7.0 | 0.00 | 0.00 | 0.00 | 88 | 1006.5 |
| 20260506092512 | 78 | 168 | 5.0 | 9.0 | 0.00 | 0.00 | 0.00 | 88 | 1006.5 |
| 20260506092012 | 78 | 161 | 5.0 | 9.0 | 0.00 | 0.00 | 0.00 | 87 | 1006.6 |
| 20260506091512 | 78 | 156 | 6.0 | 9.0 | 0.00 | 0.00 | 0.00 | 87 | 1006.6 |
| 20260506091012 | 78 | 144 | 7.0 | 14.0 | 0.00 | 0.00 | 0.00 | 86 | 1006.6 |
| 20260506090512 | 78 | 151 | 9.0 | 12.0 | 0.00 | 0.00 | 0.00 | 85 | 1006.5 |
| 20260506090012 | 78 | 156 | 8.0 | 12.0 | 0.00 | 0.00 | 0.00 | 85 | 1006.4 |
| 20260506085513 | 78 | 156 | 8.0 | 12.0 | 0.00 | 0.00 | 0.00 | 85 | 1006.3 |
| 20260506085011 | 78 | 151 | 9.0 | 13.0 | 0.00 | 0.00 | 0.00 | 86 | 1006.3 |
| 20260506084512 | 78 | 159 | 7.0 | 12.0 | 0.00 | 0.00 | 0.00 | 85 | 1006.3 |
| 20260506083512 | 79 | 161 | 7.0 | 12.0 | 0.00 | 0.00 | 0.00 | 85 | 1006.4 |
| 20260506083012 | 79 | 152 | 7.0 | 10.0 | 0.00 | 0.00 | 0.00 | 85 | 1006.4 |
| 20260506082012 | 78 | 163 | 9.0 | 14.0 | 0.00 | 0.00 | 0.00 | 85 | 1006.4 |
| 20260506081511 | 78 | 158 | 7.0 | 13.0 | 0.00 | 0.00 | 0.00 | 85 | 1006.3 |
| 20260506073012 | 78 | 149 | 7.0 | 14.0 | 0.00 | 0.00 | 0.00 | 85 | 1006.5 |
| 20260506072511 | 79 | 156 | 8.0 | 13.0 | 0.00 | 0.00 | 0.00 | 85 | 1006.5 |
| 20260506072012 | 78 | 161 | 7.0 | 13.0 | 0.00 | 0.00 | 0.00 | 86 | 1006.5 |
| 20260506071512 | 78 | 155 | 10.0 | 14.0 | 0.00 | 0.00 | 0.00 | 87 | 1006.5 |
| 20260506071012 | 78 | 168 | 9.0 | 12.0 | 0.00 | 0.00 | 0.00 | 87 | 1006.5 |
| 20260506062511 | 78 | 158 | 8.0 | 13.0 | 0.00 | 0.00 | 0.00 | 87 | 1006.8 |
| 20260506062012 | 78 | 161 | 9.0 | 13.0 | 0.00 | 0.00 | 0.00 | 88 | 1006.9 |
| 20260506061512 | 78 | 161 | 9.0 | 14.0 | 0.00 | 0.00 | 0.00 | 88 | 1006.9 |
| 20260506061012 | 78 | 158 | 10.0 | 14.0 | 0.00 | 0.00 | 0.00 | 88 | 1006.9 |
| 20260506060512 | 78 | 154 | 10.0 | 14.0 | 0.00 | 0.00 | 0.00 | 87 | 1006.9 |
| 20260506045013 | 78 | 171 | 8.0 | 17.0 | 0.00 | 0.00 | 0.00 | 87 | 1007.2 |
| 20260506044511 | 78 | 167 | 8.0 | 13.0 | 0.00 | 0.00 | 0.00 | 87 | 1007.2 |
| 20260506044012 | 78 | 169 | 8.0 | 13.0 | 0.00 | 0.00 | 0.00 | 87 | 1007.2 |
| 20260506043512 | 78 | 171 | 7.0 | 13.0 | 0.00 | 0.00 | 0.00 | 87 | 1007.2 |
| 20260506042511 | 78 | 168 | 9.0 | 17.0 | 0.00 | 0.00 | 0.00 | 87 | 1007.0 |
| 20260506042012 | 78 | 165 | 9.0 | 18.0 | 0.00 | 0.00 | 0.00 | 87 | 1007.0 |
| 20260506041511 | 78 | 171 | 9.0 | 14.0 | 0.00 | 0.00 | 0.00 | 87 | 1007.0 |
| 20260506041012 | 78 | 163 | 10.0 | 16.0 | 0.00 | 0.00 | 0.00 | 87 | 1006.9 |
| 20260506040011 | 78 | 176 | 9.0 | 16.0 | 0.00 | 0.00 | 0.00 | 87 | 1006.6 |
| 20260506035511 | 78 | 165 | 10.0 | 16.0 | 0.00 | 0.00 | 0.00 | 87 | 1006.4 |
| 20260506034512 | 78 | 178 | 7.0 | 17.0 | 0.00 | 0.00 | 0.00 | 87 | 1006.5 |
| 20260506034012 | 78 | 155 | 7.0 | 18.0 | 0.00 | 0.00 | 0.00 | 87 | 1006.4 |
| 20260506032511 | 78 | 173 | 8.0 | 13.0 | 0.00 | 0.00 | 0.00 | 86 | 1006.1 |
| 20260506032014 | 78 | 162 | 9.0 | 13.0 | 0.00 | 0.00 | 0.00 | 87 | 1006.2 |
| 20260506031511 | 78 | 161 | 9.0 | 14.0 | 0.00 | 0.00 | 0.00 | 86 | 1006.2 |
| 20260506031013 | 78 | 159 | 9.0 | 14.0 | 0.00 | 0.00 | 0.00 | 86 | 1006.0 |
| 20260506030511 | 78 | 168 | 8.0 | 14.0 | 0.00 | 0.00 | 0.00 | 86 | 1006.0 |
| 20260506030012 | 78 | 154 | 11.0 | 14.0 | 0.00 | 0.00 | 0.00 | 86 | 1005.9 |
| 20260506025512 | 78 | 167 | 9.0 | 14.0 | 0.00 | 0.00 | 0.00 | 86 | 1006.0 |
| 20260506024511 | 79 | 161 | 13.0 | 17.0 | 0.00 | 0.00 | 0.00 | 85 | 1005.6 |
| 20260506023512 | 79 | 155 | 10.0 | 16.0 | 0.00 | 0.00 | 0.00 | 85 | 1005.7 |
| 20260506023012 | 79 | 157 | 10.0 | 17.0 | 0.00 | 0.00 | 0.00 | 84 | 1005.6 |
| 20260506021518 | 79 | 159 | 12.0 | 20.0 | 0.00 | 0.00 | 0.00 | 84 | 1005.5 |
| 20260506021012 | 79 | 156 | 13.0 | 21.0 | 0.00 | 0.00 | 0.00 | 83 | 1005.4 |
| 20260506020512 | 79 | 157 | 13.0 | 18.0 | 0.00 | 0.00 | 0.00 | 83 | 1005.4 |
| 20260506020011 | 80 | 151 | 13.0 | 21.0 | 0.00 | 0.00 | 0.00 | 82 | 1005.3 |
| 20260506015011 | 80 | 150 | 11.0 | 15.0 | 0.00 | 0.00 | 0.00 | 82 | 1005.3 |
| 20260506014012 | 80 | 159 | 11.0 | 18.0 | 0.00 | 0.00 | 0.00 | 81 | 1005.2 |
| 20260506013512 | 80 | 156 | 9.0 | 15.0 | 0.00 | 0.00 | 0.00 | 81 | 1005.2 |
| 20260506012511 | 80 | 154 | 12.0 | 20.0 | 0.00 | 0.00 | 0.00 | 81 | 1005.1 |
| 20260506012012 | 81 | 155 | 11.0 | 18.0 | 0.00 | 0.00 | 0.00 | 80 | 1005.1 |
| 20260506011512 | 81 | 165 | 13.0 | 18.0 | 0.00 | 0.00 | 0.00 | 80 | 1004.9 |
| 20260506011012 | 81 | 158 | 11.0 | 18.0 | 0.00 | 0.00 | 0.00 | 80 | 1004.9 |
| 20260506010512 | 81 | 150 | 11.0 | 17.0 | 0.00 | 0.00 | 0.00 | 79 | 1004.9 |
| 20260506010011 | 81 | 145 | 13.0 | 17.0 | 0.00 | 0.00 | 0.00 | 78 | 1004.9 |
| 20260506005512 | 81 | 151 | 11.0 | 16.0 | 0.00 | 0.00 | 0.00 | 78 | 1004.7 |
| 20260506005011 | 81 | 154 | 13.0 | 17.0 | 0.00 | 0.00 | 0.00 | 78 | 1004.6 |
| 20260506004511 | 82 | 154 | 13.0 | 17.0 | 0.00 | 0.00 | 0.00 | 77 | 1004.6 |
| 20260506004011 | 82 | 165 | 10.0 | 17.0 | 0.00 | 0.00 | 0.00 | 76 | 1004.6 |
| 20260506003511 | 82 | 156 | 15.0 | 21.0 | 0.00 | 0.00 | 0.00 | 76 | 1004.6 |
| 20260506002511 | 82 | 154 | 14.0 | 20.0 | 0.00 | 0.00 | 0.00 | 75 | 1004.5 |
| 20260506002012 | 83 | 157 | 12.0 | 20.0 | 0.00 | 0.00 | 0.00 | 74 | 1004.5 |
| 20260506001512 | 83 | 157 | 13.0 | 20.0 | 0.00 | 0.00 | 0.00 | 74 | 1004.5 |
| 20260506001012 | 83 | 158 | 13.0 | 17.0 | 0.00 | 0.00 | 0.00 | 73 | 1004.4 |
| 20260506000011 | 84 | 147 | 15.0 | 22.0 | 0.00 | 0.00 | 0.00 | 71 | 1004.3 |
| 20260505235511 | 84 | 151 | 15.0 | 22.0 | 0.00 | 0.00 | 0.00 | 71 | 1004.2 |
| 20260505235012 | 85 | 157 | 12.0 | 20.0 | 0.00 | 0.00 | 0.00 | 70 | 1004.3 |
| 20260505234511 | 85 | 158 | 13.0 | 22.0 | 0.00 | 0.00 | 0.00 | 70 | 1004.1 |
| 20260505234011 | 85 | 151 | 13.0 | 20.0 | 0.00 | 0.00 | 0.00 | 70 | 1004.0 |
| 20260505233511 | 84 | 138 | 16.0 | 22.0 | 0.00 | 0.00 | 0.00 | 70 | 1004.0 |
| 20260505233012 | 84 | 145 | 15.0 | 21.0 | 0.00 | 0.00 | 0.00 | 71 | 1004.1 |